Flag for France Weather past 2 weeks in Amsterdam Island, French Southern Territories, France

Now
52 °F

Cool.


Feels Like: 46 °F
Forecast: 52 / 55 °F
Wind: 18 mph from West

Location: Martin De Vivies Ile Amsterdam

Current Time: Oct 2, 2014 at 8:25:32 AM

Latest Report: Oct 2, 2014 at 8:00 AM


Visibility: N/A

Pressure: 30.01 "Hg

Humidity: 93%

Dew point: 49 °F

Location of Amsterdam IslandLocation

Historic Weather in Amsterdam Island — Graph

°F

Amsterdam Island temperature yesterday

Maximum temperature yesterday: 54 °F (at 12:00 PM)
Minimum temperature yesterday: 42 °F (at 1:00 AM)
Average temperature yesterday: 48 °F

Past Weeks' High & Low Weather Summary

 TemperatureHumidityPressure
High61 °F (Sep 27, 1:00 PM)97% (Sep 30, 4:00 AM)30.49 "Hg (Sep 30, 4:00 AM)
Low41 °F (Sep 19, 7:00 AM)51% (Sep 19, 11:00 AM)29.41 "Hg (Sep 18, 5:00 AM)
Average51 °F78%30.00 "Hg
* Reported Sep 17 7:00 AM — Oct 2 7:00 AM, Amsterdam Island, Weather by CustomWeather, © 2014

Note: Actual official high and low records may vary slightly from our data, if they occured in-between our weather recording intervals... More about our weather records

Advertising

Amsterdam Island weather history for previous 24 hours

 ConditionsComfort  
Time TempWeatherWind HumidityBarometerVisibility
7:00 AM
Oct 2
48 °FCool.18 mph89%30.01 "HgN/A
6:00 AM49 °FCool.29 mph85%30.01 "HgN/A
5:00 AM51 °FCool.21 mph87%29.99 "HgN/A
4:00 AM51 °FCool.21 mph86%29.99 "HgN/A
3:00 AM51 °FCool.22 mph88%29.99 "HgN/A
2:00 AM51 °FCool.20 mph90%29.99 "HgN/A
1:00 AM49 °FCool.13 mph91%30.00 "HgN/A
12:00 AM49 °FCool.18 mph88%30.01 "HgN/A
11:00 PM
Oct 1
50 °FCool.14 mph85%30.01 "HgN/A
10:00 PM49 °FCool.16 mph87%30.02 "HgN/A
9:00 PM50 °FCool.17 mph85%30.02 "HgN/A
8:00 PM50 °FCool.20 mph86%30.02 "HgN/A
7:00 PM50 °FCool.21 mph88%30.01 "HgN/A
6:00 PM49 °FCool.16 mph86%30.01 "HgN/A
5:00 PM49 °FCool.16 mph83%30.01 "HgN/A
4:00 PM51 °FCool.20 mph71%30.00 "HgN/A
3:00 PM51 °FCool.18 mph71%30.00 "HgN/A
2:00 PM53 °FCool.18 mph63%29.99 "HgN/A
1:00 PM54 °FCool.18 mph56%29.99 "HgN/A
12:00 PM54 °FCool.16 mph65%29.97 "HgN/A
11:00 AM52 °FCool.20 mph62%29.96 "HgN/A
10:00 AM49 °FCool.23 mph70%29.97 "HgN/A
9:00 AM49 °FCool.21 mph58%29.96 "HgN/A
8:00 AM47 °FCool.20 mph67%29.94 "HgN/A
Weather by CustomWeather, © 2014

See weather overviewHow to use our weather pages